Powrót do katalogu

METEOR 2-7 DEB

AktywnyPO
NORAD 45515·DEBRIS·🇷🇺 Russia

Wystrzelony Feb 12, 1981 z Plesetsk Cosmodrome

Loading…

Następne Przeloty (najbliższe 24 godziny)

TLE

NieaktualneSource: Space-Track

Epoka: Aug 18, 2026, 23:04 UTC

1 45515U 81043AA  26230.96159977  .00005871  00000-0  16249-2 0  9997
2 45515  81.2520 303.7526 0010349 120.3631  53.5862 14.46547815661488

Śledź METEOR 2-7 DEB w czasie rzeczywistym z AllMySat

Download on the App Store